Tracking 19709 objects as of 18-Jun-2019
HD Live streaming from Space Station
objects crossing your sky now

COSMOS 1244

Track COSMOS 1244 now!
10-day predictions
COSMOS 1244 is classified as:


NORAD ID: 12297
Int'l Code: 1981-013A
Perigee: 965.5 km
Apogee: 1,012.1 km
Inclination: 83.0 °
Period: 104.7 minutes
Semi major axis: 7359 km
RCS: 2.3625 m2 (large)
Launch date: February 12, 1981
Source: Commonwealth of Independent States (former USSR) (CIS)
Launch site: PLESETSK MISSILE AND SPACE COMPLEX (PKMTR)
aabbcc
Your satellite tracking list
Your tracking list is empty




NASA's NSSDC Master Catalog

Two Line Element Set (TLE):
1 12297U 81013A   19168.54379757 +.00000037 +00000-0 +22784-4 0  9993
2 12297 082.9509 177.2821 0031659 124.1537 350.0991 13.74998213567902
Source of the keplerian elements: AFSPC